Regional Weather Roundup
Issued by NWS

Current Version | Previous Version | Text Only | Print | Product List | Glossary On
Versions: 1 2 3 4 5 6 7 8 9 10 11 12 13 14 15 16 17 18 19 20 21 22 23 24 25 26 27
000
ASUS46 KPQR 301210
RWROR

OREGON REGIONAL WEATHER ROUNDUP
NATIONAL WEATHER SERVICE PORTLAND OR
500 AM PDT FRI SEP 30 2022

NOTE: "FAIR" INDICATES FEW OR NO CLOUDS BELOW 12,000 FEET WITH
NO SIGNIFICANT WEATHER AND/OR OBSTRUCTIONS TO VISIBILITY.

ORZ001>013-301300-
NORTHWEST OREGON


CITY           SKY/WX    TMP DP  RH WIND       PRES   REMARKS
ASTORIA        CLOUDY    60  53  77 NW7       30.21S
6HR MIN TEMP:  58; 6HR MAX TEMP:  60;

TILLAMOOK      CLOUDY    54  54 100 W3        30.22S
NEWPORT        CLOUDY    52  52 100 N6        30.21F FOG
FLORENCE       CLOUDY    55  55 100 N3        30.17F FOG
PORTLAND       CLOUDY    59  53  80 N5        30.20S
6HR MIN TEMP:  58; 6HR MAX TEMP:  62;

VANCOUVER WA   CLOUDY    58  52  80 NW5       30.21S
6HR MIN TEMP:  57; 6HR MAX TEMP:  60;

SCAPPOOSE      CLOUDY    57  53  86 N3        30.19F
6HR MIN TEMP:  53; 6HR MAX TEMP:  60;

HILLSBORO      CLEAR     49  47  93 CALM      30.20S
6HR MIN TEMP:  48; 6HR MAX TEMP:  59;

AURORA         CLEAR     53  51  93 N7        30.20F
6HR MIN TEMP:  51; 6HR MAX TEMP:  60;

MCMINNVILLE    CLEAR     49  48  97 CALM      30.18F FOG
6HR MIN TEMP:  47; 6HR MAX TEMP:  57;

SALEM          CLOUDY    52  51  97 CALM      30.18S FOG
6HR MIN TEMP:  49; 6HR MAX TEMP:  56;

CORVALLIS      FOG       48  46  93 CALM      30.19F VSB 1/2
EUGENE         FOG       54  53  97 NE5       30.18S VSB 3/4
6HR MIN TEMP:  52; 6HR MAX TEMP:  59;

CRESWELL       CLOUDY    57  57 100 NW3       30.16F FOG
$$

ORZ021-028-301300-
SOUTHWEST OREGON


CITY           SKY/WX    TMP DP  RH WIND       PRES   REMARKS
NORTH BEND     FOG       55  55 100 N9        30.16S VSB 1/2
6HR MIN TEMP:  55; 6HR MAX TEMP:  56;

BROOKINGS      CLEAR     67  49  52 NE9G18    30.00F
ROSEBURG       CLOUDY    61  55  81 CALM      30.14F
6HR MIN TEMP:  57; 6HR MAX TEMP:  62;

SEXTON SUMMIT  PTCLDY    47  46  97 NE9       30.15S FOG
6HR MIN TEMP:  47; 6HR MAX TEMP:  51; 6HR PCP: TRACE;

GRANTS PASS    FAIR      50  46  87 CALM      30.15S
MEDFORD          N/A     51  45  79 CALM      30.13S
6HR MIN TEMP:  49; 6HR MAX TEMP:  60;

$$

ORZ014>016-041-301300-
COLUMBIA GORGE


CITY           SKY/WX    TMP DP  RH WIND       PRES   REMARKS
TROUTDALE      CLOUDY    59  53  80 CALM      30.19S
6HR MIN TEMP:  58; 6HR MAX TEMP:  63;

HOOD RIVER     CLEAR     46  45  93 S3        30.17S
THE DALLES     CLEAR     55  48  77 SE5       30.15R
6HR MIN TEMP:  54; 6HR MAX TEMP:  65;

$$

ORZ029>031-041-044-049-050-061>064-502-503-505>511-301300-
EASTERN OREGON


CITY           SKY/WX    TMP DP  RH WIND       PRES   REMARKS
MADRAS         CLEAR     37  37 100 S3        30.21F
REDMOND        PTCLDY    44  40  85 CALM      30.20R
6HR MIN TEMP:  44; 6HR MAX TEMP:  53;

BEND           MOCLDY    45  41  87 SW5       30.22S
PRINEVILLE     PTCLDY    39  39 100 CALM      30.21S
KLAMATH FALLS  CLEAR     45  40  82 N6        30.17F
6HR MIN TEMP:  35; 6HR MAX TEMP:  52;

LAKEVIEW       CLEAR     45  40  82 N13       30.20S
HERMISTON      CLOUDY    61  49  64 CALM      30.14R
6HR MIN TEMP:  60; 6HR MAX TEMP:  63;

PENDLETON      CLOUDY    61  47  59 SW9       30.14S
6HR MIN TEMP:  61; 6HR MAX TEMP:  64;

JOHN DAY       CLOUDY    48  47  94 W3        30.20S
MEACHAM        CLOUDY    48  47  96 CALM      30.18S
6HR MIN TEMP:  48; 6HR MAX TEMP:  51; 6HR PCP: TRACE;

LA GRANDE      MOCLDY    53  49  86 W7        30.16S
6HR MIN TEMP:  52; 6HR MAX TEMP:  56; 6HR PCP:  0.02;

BAKER CITY     CLOUDY    51  46  83 SW5       30.15S
6HR MIN TEMP:  47; 6HR MAX TEMP:  51; 6HR PCP: TRACE;

BURNS          CLEAR     40  37  89 NW8       30.20R
6HR MIN TEMP:  33; 6HR MAX TEMP:  44;

ROME             N/A     41  35  79 S7        30.16S
6HR MIN TEMP:  41; 6HR MAX TEMP:  56;

ONTARIO        CLOUDY    55  46  71 CALM      30.13R
6HR MIN TEMP:  54; 6HR MAX TEMP:  61; 6HR PCP: TRACE;

$$


OTHER REGIONAL REPORTS

CITY           SKY/WX    TMP DP  RH WIND       PRES   REMARKS
SEATTLE        MOCLDY    54  51  90 NE12      30.22S
6HR MIN TEMP:  54; 6HR MAX TEMP:  61;

SPOKANE        CLOUDY    54  51  90 NE3       30.14S
6HR MIN TEMP:  53; 6HR MAX TEMP:  54;

VANCOUVER BC   PTCLDY    52  52 100 E2        30.22S
PRINCE GEORGE  CLEAR     41  41 100 S3        30.21R
DAWSON CREEK   PTCLDY    45  43  93 CALM      30.13  FOG
WHITEHORSE     MOCLDY    50  43  76 S9        29.90R
BOISE          MOCLDY    50  41  71 CALM      30.12R
6HR MIN TEMP:  48; 6HR MAX TEMP:  57;

REDDING        CLEAR     72  42  34 N8        29.90S
6HR MIN TEMP:  72; 6HR MAX TEMP:  79;

SAN FRANCISCO  CLEAR     60  55  83 CALM      29.88F
6HR MIN TEMP:  58; 6HR MAX TEMP:  62;


$$




USA.gov is the U.S. government's official web portal to all federal, state and local government web resources and services.